This is the latest recevied weather packets stored in our database for station/object MB7UKB-10. If no packets are shown the sender has not sent any weather packets the latest 10 day(s).
| Time | Temp. | Humidity | Pressure | Rain* | Wind** | Luminosity | Snow |
|---|---|---|---|---|---|---|---|
| 1788382834 | 18.89° C | 87% | 1016.8 hPa | 0 mm | - | - | - |
| 1788381033 | 18.33° C | 88% | 1016.9 hPa | 0 mm | - | - | - |
| 1788379233 | 18.89° C | 87% | 1016.6 hPa | 0 mm | - | - | - |
| 1788377435 | 18.89° C | 88% | 1016.7 hPa | 0 mm | - | - | - |
| 1788375633 | 18.33° C | 89% | 1016.4 hPa | 0 mm | - | - | - |
| 1788373834 | 18.33° C | 89% | 1016.4 hPa | 0.25 mm | - | - | - |
| 1788372034 | 18.33° C | 91% | 1016.6 hPa | 0 mm | - | - | - |
| 1788370235 | 18.33° C | 91% | 1016.9 hPa | 0 mm | - | - | - |
| 1788368434 | 18.33° C | 89% | 1016.9 hPa | 0.25 mm | - | - | - |
| 1788366634 | 18.33° C | 87% | 1017 hPa | 0 mm | - | - | - |
| 1788364834 | 18.33° C | 83% | 1017.1 hPa | 0 mm | - | - | - |
| 1788363033 | 18.33° C | 83% | 1017.5 hPa | 0 mm | - | - | - |
| 1788361233 | 18.33° C | 84% | 1017.6 hPa | 0 mm | - | - | - |
| 1788359433 | 18.89° C | 79% | 1017.9 hPa | 0.25 mm | - | - | - |
| 1788357633 | 20° C | 71% | 1018.1 hPa | 0 mm | - | - | - |
| 1788355833 | 19.44° C | 68% | 1018.2 hPa | 0 mm | - | - | - |
| 1788354033 | 19.44° C | 66% | 1018.2 hPa | 0 mm | - | - | - |
| 1788352234 | 18.89° C | 67% | 1018.6 hPa | 0 mm | - | - | - |
| 1788350433 | 19.44° C | 69% | 1018.8 hPa | 0 mm | - | - | - |
| 1788348633 | 19.44° C | 74% | 1018.9 hPa | 0 mm | - | - | - |
| 1788346833 | 18.33° C | 82% | 1019.4 hPa | 0 mm | - | - | - |
| 1788345033 | 18.33° C | 86% | 1019.5 hPa | 0.25 mm | - | - | - |
| 1788343233 | 17.22° C | 90% | 1019.9 hPa | 0.76 mm | - | - | - |
| 1788341433 | 16.67° C | 86% | 1019.9 hPa | 0.76 mm | - | - | - |
| 1788339633 | 17.78° C | 82% | 1020 hPa | 0 mm | - | - | - |
* Rain latest hour (hover to see other rain measurements)
** Current wind speed in m/s (hover to see current wind gust speed)